QPF
0.00 0.00 0.00 0.00 0.00 0.00 0.00 0.01 0.04 0.07 0.09 0.12 0.14 0.18 0.20 0.19 0.13 0.08 0.05 0.03 0.01 0.01 0.01 0.01 0.02 0.03 0.03 0.03 0.04 0.07 0.09 0.09 0.11 0.12 0.13 0.13 0.15 0.14 0.11 0.07 0.03 0.01 0.01 0.00
0.00 0.00 0.00 0.00 0.00 0.00 0.00 0.01 0.01 0.01 0.02 0.03 0.03 0.03 0.04 0.03 0.02 0.01 0.01 0.00 0.00 0.00 0.00 0.00 0.00 0.00 0.00 0.00 0.00 0.01 0.01 0.03 0.05 0.08 0.09 0.10 0.11 0.11 0.10 0.08 0.07 0.05 0.04 0.02
0.00 0.00 0.00 0.00 0.00 0.00 0.00 0.00 0.01 0.00 0.00 0.00 0.00 0.00 0.00 0.01 0.01 0.01 0.00 0.00 0.00 0.00 0.00 0.00 0.00 0.00 0.00 0.00 0.00 0.00 0.00 0.01 0.01 0.02 0.03 0.03 0.03 0.03 0.03 0.02 0.02 0.02 0.03 0.03
0.00 0.00 0.00 0.00 0.00 0.00 0.00 0.00 0.00 0.00 0.00 0.00 0.00 0.00 0.00 0.00 0.00 0.00 0.00 0.00 0.00 0.00 0.00 0.00 0.00 0.00 0.00 0.00 0.00 0.00 0.00 0.00 0.00 0.00 0.00 0.00 0.00 0.00 0.01 0.01 0.01 0.02 0.03 0.02
0.00 0.00 0.00 0.00 0.00 0.00 0.00 0.00 0.00 0.00 0.00 0.00 0.00 0.00 0.00 0.00 0.00 0.00 0.00 0.00 0.00 0.00 0.00 0.00 0.00 0.00 0.00 0.00 0.00 0.00 0.00 0.00 0.00 0.00 0.00 0.00 0.00 0.00 0.00 0.01 0.01 0.01 0.01 0.01
0.00 0.00 0.00 0.00 0.00 0.00 0.00 0.00 0.00 0.00 0.00 0.00 0.00 0.00 0.00 0.00 0.00 0.00 0.00 0.00 0.00 0.00 0.00 0.00 0.00 0.00 0.00 0.00 0.00 0.00 0.00 0.00 0.00 0.00 0.00 0.01 0.01 0.00 0.00 0.01 0.01 0.01 0.00 0.00
0.00 0.00 0.00 0.00 0.00 0.00 0.00 0.00 0.00 0.00 0.00 0.00 0.00 0.00 0.00 0.00 0.00 0.00 0.00 0.00 0.00 0.00 0.00 0.00 0.00 0.00 0.00 0.00 0.00 0.00 0.00 0.00 0.01 0.01 0.00 0.02 0.02 0.01 0.01 0.01 0.01 0.01 0.01 0.00
0.00 0.00 0.00 0.00 0.00 0.00 0.00 0.00 0.00 0.00 0.00 0.00 0.00 0.00 0.00 0.00 0.00 0.00 0.00 0.00 0.00 0.00 0.00 0.00 0.00 0.00 0.00 0.00 0.00 0.00 0.00 0.01 0.01 0.01 0.00 0.01 0.02 0.01 0.01 0.01 0.01 0.02 0.03 0.03
0.00 0.00 0.00 0.00 0.00 0.00 0.00 0.00 0.00 0.00 0.00 0.00 0.00 0.00 0.00 0.00 0.00 0.00 0.00 0.00 0.00 0.00 0.00 0.00 0.00 0.00 0.00 0.00 0.00 0.00 0.00 0.00 0.00 0.01 0.01 0.01 0.01 0.01 0.01 0.01 0.01 0.02 0.03 0.04
0.00 0.00 0.00 0.00 0.00 0.00 0.00 0.00 0.00 0.00 0.00 0.00 0.00 0.00 0.00 0.00 0.00 0.00 0.00 0.00 0.00 0.00 0.00 0.00 0.00 0.00 0.00 0.00 0.00 0.00 0.00 0.00 0.00 0.00 0.01 0.01 0.01 0.00 0.01 0.01 0.01 0.01 0.01 0.02
0.00 0.00 0.00 0.00 0.00 0.00 0.00 0.00 0.00 0.00 0.00 0.00 0.00 0.00 0.00 0.00 0.00 0.00 0.00 0.00 0.00 0.00 0.00 0.00 0.00 0.00 0.00 0.00 0.00 0.00 0.00 0.00 0.00 0.00 0.01 0.02 0.01 0.00 0.00 0.00 0.00 0.00 0.00 0.01
0.00 0.00 0.00 0.00 0.00 0.00 0.00 0.00 0.00 0.00 0.00 0.00 0.00 0.00 0.00 0.00 0.00 0.00 0.00 0.00 0.00 0.00 0.00 0.00 0.00 0.00 0.00 0.00 0.00 0.00 0.00 0.00 0.00 0.00 0.00 0.01 0.02 0.01 0.00 0.00 0.00 0.00 0.00 0.00
0.00 0.00 0.00 0.00 0.00 0.00 0.00 0.00 0.00 0.00 0.00 0.00 0.00 0.00 0.00 0.00 0.00 0.00 0.00 0.00 0.00 0.00 0.00 0.00 0.00 0.00 0.00 0.00 0.00 0.00 0.00 0.00 0.00 0.00 0.00 0.00 0.01 0.02 0.02 0.01 0.00 0.00 0.00 0.00
0.00 0.00 0.00 0.00 0.00 0.00 0.00 0.00 0.00 0.00 0.00 0.00 0.00 0.00 0.00 0.00 0.00 0.00 0.00 0.00 0.00 0.00 0.00 0.00 0.00 0.00 0.00 0.00 0.00 0.00 0.00 0.00 0.00 0.00 0.00 0.00 0.00 0.00 0.01 0.02 0.03 0.02 0.01 0.00
0.00 0.00 0.00 0.00 0.00 0.00 0.00 0.00 0.00 0.00 0.00 0.00 0.00 0.00 0.00 0.00 0.00 0.00 0.00 0.00 0.00 0.00 0.00 0.00 0.00 0.00 0.00 0.00 0.00 0.00 0.00 0.00 0.00 0.00 0.00 0.00 0.00 0.00 0.00 0.00 0.01 0.02 0.02 0.01
0.00 0.00 0.00 0.00 0.00 0.00 0.00 0.00 0.00 0.00 0.00 0.00 0.00 0.00 0.00 0.00 0.00 0.00 0.00 0.00 0.00 0.00 0.00 0.00 0.00 0.00 0.00 0.00 0.00 0.00 0.00 0.00 0.00 0.00 0.00 0.00 0.00 0.00 0.00 0.00 0.01 0.01 0.01 0.01
0.00 0.00 0.00 0.00 0.00 0.00 0.00 0.00 0.00 0.00 0.00 0.00 0.00 0.00 0.00 0.00 0.00 0.00 0.00 0.00 0.00 0.00 0.00 0.00 0.00 0.00 0.00 0.00 0.00 0.00 0.00 0.00 0.00 0.00 0.00 0.00 0.00 0.00 0.00 0.00 0.01 0.00 0.00 0.00
0.00 0.00 0.00 0.00 0.00 0.00 0.00 0.00 0.00 0.00 0.00 0.00 0.00 0.00 0.00 0.00 0.00 0.00 0.00 0.00 0.00 0.00 0.00 0.00 0.00 0.00 0.00 0.00 0.00 0.00 0.00 0.00 0.00 0.00 0.00 0.00 0.00 0.00 0.01 0.01 0.01 0.01 0.00 0.00
0.00 0.00 0.00 0.00 0.00 0.00 0.00 0.00 0.00 0.00 0.00 0.00 0.00 0.00 0.00 0.00 0.00 0.00 0.00 0.00 0.00 0.00 0.00 0.00 0.00 0.00 0.00 0.00 0.00 0.00 0.00 0.00 0.00 0.00 0.00 0.00 0.00 0.00 0.01 0.01 0.01 0.01 0.00 0.00
0.00 0.00 0.00 0.00 0.00 0.00 0.00 0.00 0.00 0.00 0.00 0.00 0.00 0.00 0.00 0.00 0.00 0.00 0.00 0.00 0.00 0.00 0.00 0.00 0.00 0.00 0.00 0.00 0.00 0.00 0.00 0.00 0.00 0.00 0.00 0.00 0.00 0.00 0.00 0.01 0.01 0.01 0.01 0.01
0.00 0.00 0.00 0.00 0.00 0.00 0.00 0.00 0.00 0.00 0.00 0.00 0.00 0.00 0.00 0.00 0.00 0.00 0.00 0.00 0.00 0.00 0.00 0.00 0.00 0.00 0.00 0.00 0.00 0.00 0.00 0.00 0.00 0.00 0.00 0.00 0.00 0.00 0.00 0.00 0.01 0.01 0.01 0.00
0.00 0.00 0.00 0.00 0.00 0.00 0.00 0.00 0.00 0.00 0.00 0.00 0.00 0.00 0.00 0.00 0.00 0.00 0.00 0.00 0.00 0.00 0.00 0.00 0.00 0.00 0.00 0.00 0.00 0.00 0.00 0.00 0.00 0.00 0.00 0.00 0.00 0.00 0.00 0.00 0.01 0.01 0.00 0.00
0.00 0.00 0.00 0.00 0.00 0.00 0.00 0.00 0.00 0.00 0.00 0.00 0.00 0.00 0.00 0.00 0.00 0.00 0.00 0.00 0.00 0.00 0.00 0.00 0.00 0.00 0.00 0.00 0.00 0.00 0.00 0.00 0.00 0.00 0.00 0.00 0.00 0.00 0.00 0.00 0.00 0.00 0.00 0.00
0.00 0.00 0.00 0.00 0.00 0.00 0.00 0.00 0.00 0.00 0.00 0.00 0.00 0.00 0.00 0.00 0.00 0.00 0.00 0.00 0.00 0.00 0.00 0.00 0.00 0.00 0.00 0.00 0.00 0.00 0.00 0.00 0.00 0.00 0.00 0.00 0.00 0.00 0.00 0.00 0.00 0.00 0.00 0.00
0.00 0.00 0.00 0.00 0.00 0.00 0.00 0.00 0.00 0.00 0.00 0.00 0.00 0.00 0.00 0.00 0.00 0.00 0.00 0.00 0.00 0.00 0.00 0.00 0.00 0.00 0.00 0.00 0.00 0.00 0.00 0.00 0.00 0.00 0.00 0.00 0.00 0.00 0.00 0.00 0.00 0.00 0.00 0.00
0.00 0.00 0.00 0.00 0.00 0.00 0.00 0.00 0.00 0.00 0.00 0.00 0.00 0.00 0.00 0.00 0.00 0.00 0.00 0.00 0.00 0.00 0.00 0.00 0.00 0.00 0.00 0.00 0.00 0.00 0.00 0.00 0.00 0.00 0.00 0.00 0.00 0.00 0.00 0.00 0.00 0.00 0.00 0.00
0.00 0.00 0.00 0.00 0.00 0.00 0.00 0.00 0.00 0.00 0.00 0.00 0.00 0.00 0.00 0.00 0.00 0.00 0.00 0.00 0.00 0.00 0.00 0.00 0.00 0.00 0.00 0.00 0.00 0.00 0.00 0.00 0.00 0.00 0.00 0.00 0.00 0.00 0.00 0.00 0.00 0.00 0.00 0.00
MSLP
1021.38 1021.78 1022.23 1022.71 1023.22 1023.72 1024.16 1024.50 1024.69 1024.68 1024.47 1024.04 1023.43 1022.68 1021.86 1021.01 1020.19 1019.43 1018.76 1018.18 1017.67 1017.22 1016.81 1016.43 1016.08 1015.76 1015.48 1015.25 1015.09 1014.98 1014.91 1014.86 1014.81 1014.72 1014.58 1014.38 1014.12 1013.84 1013.57 1013.33 1013.16 1013.07 1013.07 1013.14
1021.30 1021.70 1022.12 1022.56 1023.00 1023.41 1023.76 1023.99 1024.08 1023.99 1023.72 1023.28 1022.70 1022.02 1021.29 1020.56 1019.87 1019.24 1018.69 1018.21 1017.78 1017.39 1017.02 1016.68 1016.35 1016.04 1015.78 1015.57 1015.42 1015.33 1015.28 1015.24 1015.19 1015.11 1014.98 1014.78 1014.53 1014.26 1014.00 1013.77 1013.61 1013.53 1013.52 1013.58
1021.13 1021.49 1021.85 1022.22 1022.58 1022.90 1023.15 1023.30 1023.32 1023.20 1022.92 1022.51 1022.00 1021.42 1020.81 1020.21 1019.66 1019.16 1018.71 1018.32 1017.96 1017.62 1017.28 1016.96 1016.65 1016.36 1016.11 1015.92 1015.79 1015.71 1015.68 1015.65 1015.62 1015.55 1015.43 1015.25 1015.03 1014.78 1014.54 1014.33 1014.18 1014.10 1014.10 1014.14
1020.93 1021.22 1021.51 1021.79 1022.06 1022.30 1022.47 1022.56 1022.55 1022.42 1022.18 1021.85 1021.43 1020.97 1020.49 1020.03 1019.60 1019.21 1018.85 1018.52 1018.20 1017.89 1017.57 1017.26 1016.95 1016.68 1016.44 1016.27 1016.15 1016.09 1016.07 1016.06 1016.05 1016.00 1015.90 1015.76 1015.56 1015.35 1015.14 1014.96 1014.83 1014.76 1014.74 1014.76
1020.73 1020.94 1021.14 1021.34 1021.53 1021.69 1021.81 1021.87 1021.85 1021.76 1021.58 1021.33 1021.03 1020.70 1020.35 1020.01 1019.68 1019.37 1019.07 1018.78 1018.47 1018.17 1017.85 1017.53 1017.22 1016.95 1016.73 1016.56 1016.46 1016.42 1016.42 1016.43 1016.44 1016.42 1016.35 1016.23 1016.08 1015.91 1015.74 1015.59 1015.48 1015.42 1015.39 1015.39
1020.52 1020.65 1020.77 1020.90 1021.02 1021.13 1021.21 1021.26 1021.27 1021.22 1021.12 1020.98 1020.79 1020.57 1020.34 1020.09 1019.84 1019.58 1019.31 1019.03 1018.72 1018.40 1018.06 1017.73 1017.42 1017.14 1016.93 1016.78 1016.69 1016.66 1016.68 1016.71 1016.75 1016.75 1016.72 1016.65 1016.55 1016.42 1016.30 1016.19 1016.10 1016.05 1016.02 1016.00
1020.25 1020.32 1020.39 1020.47 1020.54 1020.62 1020.70 1020.76 1020.80 1020.82 1020.79 1020.74 1020.65 1020.53 1020.38 1020.21 1020.01 1019.78 1019.52 1019.22 1018.90 1018.55 1018.19 1017.84 1017.52 1017.24 1017.02 1016.88 1016.81 1016.80 1016.84 1016.90 1016.96 1017.00 1017.01 1016.99 1016.94 1016.87 1016.79 1016.72 1016.67 1016.64 1016.61 1016.57
1019.88 1019.93 1019.98 1020.03 1020.09 1020.17 1020.26 1020.35 1020.43 1020.50 1020.54 1020.56 1020.55 1020.50 1020.42 1020.30 1020.13 1019.91 1019.64 1019.33 1018.98 1018.61 1018.23 1017.86 1017.52 1017.24 1017.03 1016.90 1016.84 1016.85 1016.91 1016.99 1017.09 1017.17 1017.22 1017.26 1017.26 1017.25 1017.22 1017.20 1017.18 1017.17 1017.14 1017.09
1019.38 1019.44 1019.49 1019.56 1019.64 1019.74 1019.86 1019.98 1020.11 1020.23 1020.33 1020.41 1020.46 1020.46 1020.42 1020.32 1020.17 1019.96 1019.69 1019.36 1019.00 1018.60 1018.20 1017.82 1017.48 1017.20 1016.99 1016.86 1016.81 1016.84 1016.91 1017.02 1017.15 1017.27 1017.38 1017.46 1017.52 1017.57 1017.60 1017.62 1017.64 1017.64 1017.62 1017.57
1018.77 1018.85 1018.94 1019.04 1019.17 1019.31 1019.47 1019.64 1019.82 1019.98 1020.13 1020.26 1020.34 1020.38 1020.36 1020.29 1020.15 1019.94 1019.67 1019.34 1018.97 1018.57 1018.17 1017.78 1017.44 1017.15 1016.94 1016.82 1016.78 1016.81 1016.90 1017.03 1017.18 1017.34 1017.49 1017.63 1017.75 1017.85 1017.93 1018.00 1018.04 1018.06 1018.05 1017.99
1018.06 1018.18 1018.32 1018.49 1018.67 1018.88 1019.10 1019.32 1019.54 1019.75 1019.93 1020.08 1020.20 1020.26 1020.26 1020.21 1020.08 1019.89 1019.63 1019.32 1018.96 1018.57 1018.17 1017.79 1017.45 1017.16 1016.95 1016.82 1016.77 1016.80 1016.89 1017.04 1017.21 1017.40 1017.59 1017.77 1017.94 1018.09 1018.21 1018.32 1018.39 1018.43 1018.42 1018.36
1017.33 1017.49 1017.69 1017.92 1018.18 1018.45 1018.74 1019.01 1019.28 1019.52 1019.73 1019.91 1020.04 1020.12 1020.14 1020.10 1020.00 1019.84 1019.61 1019.32 1018.99 1018.62 1018.25 1017.88 1017.54 1017.26 1017.03 1016.89 1016.83 1016.84 1016.93 1017.07 1017.25 1017.46 1017.68 1017.90 1018.10 1018.29 1018.44 1018.57 1018.67 1018.72 1018.72 1018.66
1016.61 1016.81 1017.06 1017.36 1017.70 1018.04 1018.39 1018.72 1019.02 1019.30 1019.54 1019.73 1019.88 1019.97 1020.02 1020.01 1019.94 1019.80 1019.62 1019.37 1019.08 1018.75 1018.40 1018.05 1017.72 1017.43 1017.19 1017.03 1016.94 1016.94 1017.00 1017.13 1017.30 1017.52 1017.75 1017.99 1018.22 1018.43 1018.62 1018.76 1018.87 1018.93 1018.94 1018.89
1015.94 1016.17 1016.48 1016.84 1017.24 1017.65 1018.06 1018.44 1018.79 1019.09 1019.35 1019.56 1019.72 1019.83 1019.90 1019.91 1019.87 1019.78 1019.64 1019.44 1019.20 1018.91 1018.59 1018.27 1017.95 1017.65 1017.40 1017.21 1017.09 1017.05 1017.09 1017.19 1017.36 1017.57 1017.81 1018.05 1018.30 1018.52 1018.72 1018.88 1018.99 1019.06 1019.08 1019.04
1015.33 1015.59 1015.95 1016.37 1016.82 1017.29 1017.75 1018.18 1018.56 1018.89 1019.16 1019.38 1019.55 1019.68 1019.77 1019.81 1019.81 1019.76 1019.67 1019.52 1019.32 1019.08 1018.80 1018.49 1018.18 1017.88 1017.61 1017.40 1017.25 1017.17 1017.17 1017.25 1017.39 1017.59 1017.82 1018.07 1018.32 1018.55 1018.75 1018.92 1019.04 1019.11 1019.14 1019.13
1014.76 1015.06 1015.45 1015.92 1016.43 1016.95 1017.45 1017.91 1018.32 1018.67 1018.96 1019.19 1019.37 1019.51 1019.62 1019.68 1019.72 1019.71 1019.66 1019.56 1019.41 1019.21 1018.96 1018.68 1018.38 1018.07 1017.79 1017.55 1017.37 1017.26 1017.23 1017.28 1017.40 1017.58 1017.80 1018.04 1018.29 1018.52 1018.73 1018.90 1019.02 1019.11 1019.15 1019.15
1014.22 1014.55 1014.99 1015.50 1016.05 1016.60 1017.14 1017.62 1018.05 1018.42 1018.72 1018.96 1019.15 1019.31 1019.43 1019.52 1019.58 1019.61 1019.61 1019.55 1019.44 1019.27 1019.06 1018.80 1018.51 1018.21 1017.91 1017.66 1017.45 1017.31 1017.25 1017.27 1017.36 1017.52 1017.72 1017.96 1018.20 1018.43 1018.64 1018.82 1018.95 1019.05 1019.11 1019.14
1013.70 1014.06 1014.54 1015.08 1015.66 1016.24 1016.80 1017.30 1017.74 1018.12 1018.43 1018.68 1018.89 1019.05 1019.19 1019.31 1019.40 1019.47 1019.50 1019.48 1019.41 1019.28 1019.09 1018.85 1018.57 1018.28 1017.98 1017.71 1017.48 1017.31 1017.22 1017.22 1017.28 1017.42 1017.61 1017.83 1018.07 1018.30 1018.52 1018.70 1018.85 1018.96 1019.04 1019.09
1013.22 1013.62 1014.11 1014.67 1015.26 1015.85 1016.41 1016.92 1017.37 1017.75 1018.07 1018.34 1018.56 1018.75 1018.91 1019.06 1019.18 1019.28 1019.34 1019.36 1019.32 1019.22 1019.06 1018.85 1018.58 1018.29 1017.99 1017.71 1017.46 1017.27 1017.16 1017.12 1017.16 1017.28 1017.45 1017.66 1017.89 1018.13 1018.34 1018.54 1018.70 1018.83 1018.93 1019.01
1012.83 1013.23 1013.73 1014.28 1014.86 1015.44 1015.98 1016.49 1016.93 1017.32 1017.65 1017.93 1018.17 1018.39 1018.58 1018.76 1018.92 1019.05 1019.15 1019.20 1019.20 1019.13 1019.00 1018.80 1018.55 1018.27 1017.97 1017.67 1017.41 1017.20 1017.06 1016.99 1017.01 1017.10 1017.25 1017.44 1017.67 1017.90 1018.12 1018.33 1018.51 1018.66 1018.79 1018.89
1012.57 1012.96 1013.42 1013.93 1014.47 1015.01 1015.52 1015.99 1016.42 1016.81 1017.15 1017.45 1017.72 1017.97 1018.20 1018.42 1018.62 1018.79 1018.93 1019.02 1019.05 1019.01 1018.90 1018.73 1018.49 1018.21 1017.91 1017.61 1017.33 1017.10 1016.92 1016.83 1016.81 1016.87 1016.99 1017.17 1017.38 1017.61 1017.85 1018.07 1018.27 1018.44 1018.59 1018.73
1012.51 1012.83 1013.22 1013.65 1014.11 1014.57 1015.03 1015.46 1015.86 1016.24 1016.58 1016.90 1017.20 1017.49 1017.77 1018.03 1018.28 1018.49 1018.67 1018.80 1018.86 1018.85 1018.77 1018.61 1018.39 1018.12 1017.82 1017.51 1017.21 1016.95 1016.75 1016.62 1016.57 1016.59 1016.69 1016.84 1017.04 1017.27 1017.50 1017.74 1017.96 1018.16 1018.34 1018.51
1012.64 1012.85 1013.13 1013.45 1013.80 1014.17 1014.54 1014.91 1015.27 1015.62 1015.97 1016.30 1016.64 1016.96 1017.28 1017.59 1017.88 1018.13 1018.35 1018.51 1018.61 1018.63 1018.57 1018.43 1018.23 1017.97 1017.67 1017.35 1017.05 1016.77 1016.54 1016.38 1016.29 1016.28 1016.34 1016.46 1016.64 1016.86 1017.09 1017.34 1017.58 1017.81 1018.02 1018.22
1012.94 1013.02 1013.16 1013.34 1013.55 1013.80 1014.08 1014.37 1014.68 1015.00 1015.33 1015.68 1016.03 1016.38 1016.74 1017.08 1017.40 1017.70 1017.94 1018.14 1018.26 1018.30 1018.27 1018.16 1017.98 1017.73 1017.45 1017.14 1016.83 1016.54 1016.29 1016.10 1015.98 1015.93 1015.96 1016.05 1016.20 1016.40 1016.63 1016.88 1017.13 1017.39 1017.63 1017.87
1013.35 1013.29 1013.27 1013.30 1013.38 1013.51 1013.67 1013.88 1014.13 1014.41 1014.72 1015.06 1015.41 1015.78 1016.15 1016.51 1016.86 1017.17 1017.44 1017.65 1017.79 1017.86 1017.86 1017.77 1017.62 1017.40 1017.14 1016.85 1016.55 1016.26 1016.01 1015.80 1015.66 1015.58 1015.57 1015.62 1015.74 1015.92 1016.13 1016.37 1016.64 1016.90 1017.18 1017.45
1013.79 1013.59 1013.43 1013.33 1013.28 1013.29 1013.35 1013.48 1013.66 1013.89 1014.17 1014.48 1014.82 1015.18 1015.54 1015.90 1016.24 1016.56 1016.83 1017.04 1017.20 1017.29 1017.31 1017.25 1017.14 1016.96 1016.74 1016.49 1016.22 1015.96 1015.71 1015.50 1015.34 1015.24 1015.20 1015.22 1015.31 1015.45 1015.63 1015.86 1016.11 1016.38 1016.67 1016.96
1014.15 1013.85 1013.58 1013.38 1013.22 1013.14 1013.13 1013.19 1013.31 1013.49 1013.71 1013.99 1014.29 1014.62 1014.95 1015.28 1015.59 1015.88 1016.13 1016.34 1016.50 1016.60 1016.64 1016.62 1016.55 1016.43 1016.26 1016.07 1015.85 1015.63 1015.41 1015.22 1015.06 1014.95 1014.88 1014.87 1014.91 1015.01 1015.16 1015.35 1015.58 1015.84 1016.13 1016.43
Thickness
5659 5656 5650 5639 5631 5627 5620 5612 5601 5598 5600 5604 5608 5611 5616 5622 5628 5632 5636 5640 5644 5646 5649 5652 5653 5653 5654 5654 5656 5657 5657 5658 5659 5660 5662 5662 5663 5664 5666 5667 5669 5670 5671 5671
5661 5660 5657 5645 5639 5634 5627 5624 5619 5617 5614 5623 5624 5624 5626 5630 5634 5636 5639 5642 5646 5649 5652 5654 5654 5655 5655 5655 5656 5657 5657 5657 5658 5660 5660 5660 5660 5661 5660 5660 5660 5661 5660 5657
5669 5666 5657 5646 5646 5641 5635 5632 5627 5621 5623 5633 5631 5629 5631 5634 5637 5639 5642 5644 5647 5650 5653 5656 5658 5658 5656 5656 5657 5656 5656 5657 5657 5657 5657 5656 5657 5655 5654 5652 5651 5649 5647 5645
5681 5667 5652 5655 5664 5655 5645 5642 5640 5639 5641 5643 5641 5640 5641 5642 5642 5642 5645 5647 5650 5653 5654 5657 5661 5661 5659 5658 5656 5655 5654 5654 5654 5653 5652 5652 5651 5649 5648 5646 5642 5639 5637 5636
5687 5669 5662 5662 5667 5663 5655 5651 5653 5651 5652 5655 5657 5651 5646 5649 5650 5648 5649 5650 5653 5655 5656 5658 5660 5662 5661 5658 5655 5653 5652 5651 5651 5651 5649 5647 5646 5644 5642 5640 5636 5633 5629 5627
5689 5677 5670 5676 5681 5679 5665 5654 5663 5661 5658 5659 5658 5643 5642 5652 5654 5653 5653 5654 5655 5657 5658 5658 5660 5662 5661 5657 5654 5651 5651 5651 5650 5649 5647 5644 5641 5639 5637 5634 5631 5627 5622 5620
5690 5688 5684 5687 5686 5678 5656 5660 5670 5668 5663 5661 5654 5651 5654 5658 5657 5657 5657 5657 5658 5659 5658 5660 5662 5663 5660 5658 5655 5654 5653 5652 5650 5648 5646 5641 5637 5633 5629 5626 5622 5619 5615 5612
5701 5693 5682 5693 5686 5677 5676 5680 5677 5671 5668 5664 5663 5663 5663 5662 5660 5661 5660 5660 5660 5660 5661 5664 5666 5664 5661 5659 5660 5659 5656 5653 5650 5647 5644 5639 5633 5627 5622 5617 5613 5609 5605 5602
5710 5700 5705 5702 5699 5696 5694 5688 5682 5676 5672 5670 5668 5667 5667 5666 5665 5665 5665 5664 5664 5664 5665 5668 5670 5668 5664 5664 5664 5662 5659 5655 5652 5648 5642 5637 5631 5624 5617 5610 5604 5599 5596 5593
5716 5716 5713 5709 5707 5700 5697 5694 5686 5681 5677 5675 5672 5671 5670 5670 5668 5668 5668 5668 5668 5668 5667 5668 5672 5673 5671 5669 5667 5665 5661 5657 5653 5648 5642 5636 5630 5623 5614 5606 5600 5596 5592 5590
5720 5726 5720 5714 5711 5706 5700 5697 5690 5685 5682 5678 5675 5672 5672 5671 5669 5670 5670 5671 5671 5669 5669 5671 5674 5674 5673 5670 5668 5665 5663 5659 5655 5650 5644 5637 5629 5620 5613 5604 5598 5594 5591 5589
5728 5737 5727 5722 5720 5716 5706 5700 5694 5689 5685 5682 5678 5674 5673 5672 5671 5672 5672 5672 5671 5671 5671 5673 5675 5674 5673 5672 5671 5668 5664 5660 5656 5651 5646 5640 5631 5622 5613 5609 5603 5599 5594 5591
5745 5744 5740 5738 5729 5722 5714 5707 5702 5696 5690 5685 5682 5678 5675 5673 5673 5673 5673 5672 5670 5672 5674 5675 5675 5674 5673 5673 5672 5670 5666 5661 5656 5652 5647 5642 5636 5629 5620 5612 5607 5604 5600 5596
5745 5741 5734 5732 5729 5725 5719 5713 5708 5701 5695 5690 5685 5681 5677 5675 5673 5672 5671 5672 5672 5673 5675 5675 5674 5673 5674 5674 5674 5672 5668 5662 5658 5654 5649 5644 5640 5635 5629 5622 5615 5611 5606 5603
5742 5739 5736 5734 5731 5724 5720 5714 5707 5701 5697 5692 5687 5682 5678 5674 5671 5670 5672 5672 5671 5673 5673 5674 5674 5673 5675 5676 5676 5674 5670 5665 5661 5656 5652 5648 5644 5639 5633 5628 5622 5617 5613 5610
5741 5737 5737 5731 5726 5722 5718 5713 5707 5703 5700 5695 5689 5684 5680 5676 5672 5670 5671 5670 5669 5669 5671 5672 5672 5673 5676 5678 5677 5674 5668 5665 5662 5658 5655 5651 5647 5642 5636 5631 5626 5621 5617 5614
5737 5731 5729 5728 5725 5721 5717 5713 5709 5706 5703 5697 5691 5687 5682 5677 5673 5670 5669 5668 5669 5670 5671 5671 5670 5672 5676 5679 5679 5678 5673 5668 5663 5660 5657 5653 5649 5645 5640 5635 5630 5626 5622 5619
5745 5740 5735 5731 5726 5722 5717 5714 5711 5708 5704 5700 5695 5688 5681 5677 5673 5669 5666 5665 5666 5668 5669 5669 5669 5671 5676 5678 5678 5678 5677 5672 5668 5664 5659 5654 5651 5649 5644 5639 5635 5631 5627 5624
5746 5742 5738 5733 5729 5724 5719 5715 5711 5708 5704 5700 5693 5686 5683 5680 5677 5671 5667 5664 5662 5663 5665 5667 5667 5673 5677 5675 5675 5677 5679 5676 5672 5667 5661 5655 5653 5652 5648 5644 5640 5636 5632 5629
5743 5740 5737 5733 5730 5725 5720 5716 5711 5707 5703 5698 5692 5687 5683 5681 5679 5674 5668 5664 5663 5664 5664 5664 5666 5671 5674 5673 5672 5674 5677 5678 5675 5670 5666 5661 5657 5655 5652 5648 5644 5640 5636 5633
5735 5734 5732 5729 5726 5723 5719 5715 5710 5704 5700 5696 5690 5686 5683 5681 5679 5675 5670 5665 5666 5665 5664 5665 5668 5668 5670 5669 5671 5673 5676 5679 5677 5674 5670 5666 5662 5659 5656 5652 5647 5643 5640 5636
5727 5727 5726 5724 5721 5718 5716 5713 5709 5704 5698 5693 5689 5685 5682 5680 5678 5676 5674 5670 5669 5666 5664 5665 5668 5666 5667 5668 5671 5674 5677 5680 5679 5677 5673 5670 5667 5663 5660 5656 5651 5647 5643 5640
5720 5720 5719 5718 5716 5713 5711 5709 5707 5703 5697 5692 5688 5684 5681 5679 5677 5675 5673 5675 5672 5667 5665 5666 5666 5666 5667 5670 5673 5677 5680 5681 5681 5680 5677 5674 5671 5668 5664 5661 5656 5652 5647 5643
5710 5712 5712 5712 5710 5707 5704 5704 5702 5700 5696 5692 5688 5685 5681 5678 5676 5676 5675 5674 5672 5668 5667 5666 5666 5667 5668 5670 5675 5679 5682 5683 5683 5682 5680 5678 5674 5671 5668 5664 5660 5656 5651 5648
5692 5698 5701 5701 5700 5699 5699 5699 5696 5693 5690 5687 5685 5683 5681 5679 5676 5675 5675 5675 5672 5668 5666 5667 5667 5667 5668 5671 5676 5679 5681 5683 5683 5682 5681 5678 5675 5672 5670 5667 5663 5659 5655 5651
5673 5677 5682 5687 5689 5689 5690 5690 5688 5686 5683 5680 5678 5679 5678 5676 5675 5672 5670 5670 5669 5668 5666 5665 5666 5667 5669 5671 5674 5676 5678 5680 5680 5679 5678 5677 5675 5673 5671 5668 5666 5662 5658 5655
5654 5660 5661 5664 5669 5674 5676 5678 5678 5678 5677 5674 5672 5672 5672 5672 5670 5668 5667 5666 5665 5666 5665 5665 5665 5666 5667 5667 5669 5671 5673 5675 5677 5677 5676 5675 5674 5672 5671 5669 5666 5663 5661 5657